Regional Weather Roundup
Issued by NWS Kansas City/Pleasant Hill, MO

Home | Current Version | Previous Version | Text Only | Print | Product List | Glossary On
Versions: 1 2 3 4 5 6 7 8 9 10 11 12 13 14 15 16 17 18 19 20 21 22 23 24 25 26 27 28 29 30 31 32 33 34 35 36 37 38 39 40 41 42 43 44 45 46 47 48 49 50
000
ASUS43 KEAX 211511
RWREAX

WEATHER ROUNDUP FOR EASTERN KANSAS AND NORTHWEST MISSOURI
NATIONAL WEATHER SERVICE KANSAS CITY/PLEASANT HILL MO
1000 AM CDT TUE OCT 21 2014

KSZ040-057-103>105-MOZ028-029-037-043-211600-
...KANSAS CITY METROPOLITAN AREA...

CITY           SKY/WX    TMP DP  RH WIND       PRES   REMARKS
K.C. INTL      SUNNY     60  47  61 CALM      30.14R
K.C. DOWNTOWN  SUNNY     56  51  84 CALM      30.14S HAZE
LEES SUMMIT    SUNNY     60  45  57 CALM      30.15R
OLATHE - IXD   SUNNY     62  51  67 CALM      30.14S
OLATHE - OJC   SUNNY     63  50  62 CALM      30.13S
LAWRENCE       SUNNY     52  48  86 CALM      30.14S FOG

$$

MOZ001>008-011>017-020>025-030>033-038>040-044>046-053-054-211600-
...NORTHERN AND CENTRAL MISSOURI...

CITY           SKY/WX    TMP DP  RH WIND       PRES   REMARKS
ST. JOSEPH     SUNNY     51  47  86 CALM      30.15R
MOSBY            N/A     54  46  76 CALM      30.15S
WHITEMAN AFB   SUNNY     58  48  70 N2        30.14R
CLINTON        SUNNY     54  54 100 CALM      30.15R
SEDALIA        SUNNY     61  45  55 CALM      30.16R
WARSAW         NOT AVBL
MARSHALL       SUNNY     61  50  67 CALM      30.15S
CHILLICOTHE      N/A     54  46  74 CALM      30.15S
MOBERLY        SUNNY     57  45  62 NE3       30.15S
KIRKSVILLE     SUNNY     54  47  77 E6        30.17R

$$

MOZ041-047>049-056>058-063>065-088>090-097-211600-
...EASTERN AND SOUTHERN MISSOURI...

CITY           SKY/WX    TMP DP  RH WIND       PRES   REMARKS
ST. LOUIS INTL SUNNY     57  47  69 NE6       30.14R
SPIRIT OF STL  SUNNY     57  47  69 CALM      30.13R
COLUMBIA       SUNNY     60  48  64 NW3       30.14R
JEFFERSON CITY SUNNY     52  47  83 CALM      30.15R
MEXICO         SUNNY     59  52  77 NE3       30.15R
ROLLA          SUNNY     58  46  64 W5        30.13R
LEBANON        SUNNY     63  48  59 W5        30.15R
OSAGE BEACH    SUNNY     55  48  76 NE5       30.15R
SPRINGFIELD    SUNNY     62  51  67 S6        30.14R
BRANSON        SUNNY     63  59  88 CALM      30.16R
NEVADA         SUNNY     61  54  77 CALM      30.15S
JOPLIN         SUNNY     59  58  96 CALM      30.14S FOG
WEST PLAINS    SUNNY     63  46  54 W3        30.15R

$$

IAZ060-094-KSZ022-034>040-054-083-096-NEZ052-066-093-211600-
...KANSAS...SOUTHEAST NEBRASKA AND IOWA...

CITY           SKY/WX    TMP DP  RH WIND       PRES   REMARKS
TOPEKA         SUNNY     53  49  86 CALM      30.14S
MANHATTAN      SUNNY     52  47  83 CALM      30.12F
EMPORIA        SUNNY     58  51  78 SE5       30.13R
CHANUTE        SUNNY     62  58  86 SE3       30.13S
WICHITA        MOSUNNY   64  57  78 SE9       30.11R
OMAHA          SUNNY     50  43  77 CALM      30.14S
LINCOLN        SUNNY     51  41  68 CALM      30.13S
FALLS CITY     SUNNY     52  45  77 CALM      30.13S
LAMONI         SUNNY     54  44  69 E3        30.15R
DES MOINES     SUNNY     53  43  68 E5        30.16R

$$



USA.gov is the U.S. government's official web portal to all federal, state and local government web resources and services.